Location: Dunedin
(45.8670°S, 170.5000°E)
Time: 17:11:27
(UTC+13:00)

H-2A R/B - Pass Details

Date: 24 January 2019
Orbit: 262 x 32958 km, 27.9° (Epoch: 16 February)

Event Time Altitude Azimuth Distance (km) Brightness Sun altitude
Rises 22:06:15 0° 345° (NNW) 2,578 4.5 -7.6°
Reaches altitude 10° 22:09:09 10° 22° (NNE) 2,510 4.1 -8.0°
Maximum altitude 22:11:31 12° 46° (NE) 3,083 4.4 -8.3°
Drops below altitude 10° 22:15:20 10° 67° (ENE) 4,511 5.3 -8.8°
Sets 22:28:39 0° 87° (E) 9,789 7.2 -10.6°
